[[{"header":{"parameterUnit":"m.s-1","parameterCategory":1,"la1":30.2991,"la2":30.254,"lo1":-89.0895,"lo2":-89.0444,"dy":0.0017,"dx":0.0017,"nx":28,"ny":28,"refTime":"2025-05-22T03:00:00:Z","depth":0,"parameterNumber":2,"parameterNumberName":"U-component_of_WINDS"},"data":[0,0,0,0,0,0,0,0,0,0,0,0,0,0,0,0,0,0,0,0,0,0,0,0,0,0,0,0,0,0,0,0,0,0,0,0,0,0,0,0,0,0,0,0,0,0,0,0,0,0,0,0,0,0,0,0,0,0,-0.273,-0.273,0,-0.2733,-0.2733,-0.2733,-0.2764,-0.2765,-0.2766,-0.2766,-0.2769,-0.2768,-0.2768,0,0,0,0,0,0,0,0,0,0,0,0,0,-0.2753,-0.2752,-0.273,-0.273,-0.273,-0.2733,-0.2733,-0.2733,-0.2764,-0.2765,-0.2766,-0.2767,-0.2769,-0.2769,-0.2768,0,0,0,0,0,0,0,0,0,0,0,0,0,-0.2748,-0.2752,-0.273,-0.2746,-0.2748,-0.2733,-0.2733,-0.2733,-0.2764,-0.2765,-0.2766,-0.2767,-0.277,-0.2769,-0.2768,-0.2738,0,0,-0.2765,-0.2764,0,0,0,0,0,0,0,0,-0.2748,-0.2747,-0.2744,-0.2745,-0.2747,-0.2749,-0.2742,-0.2734,-0.2763,-0.2758,-0.2766,-0.2768,-0.2762,-0.2761,-0.2759,-0.2738,-0.2738,-0.2764,-0.2764,-0.2763,-0.2763,0,0,0,0,0,0,0,-0.2748,-0.2747,-0.2731,-0.2744,-0.2745,-0.2753,-0.2754,-0.274,-0.2753,-0.2758,-0.276,-0.276,-0.2763,-0.276,-0.2759,-0.2738,-0.2765,-0.2764,-0.2763,-0.2763,-0.2692,-0.2691,0,0,0,0,0,0,-0.2746,-0.2747,-0.2731,-0.2731,-0.275,-0.2752,-0.2753,-0.2747,-0.2753,-0.2755,-0.2759,-0.2762,-0.2761,-0.2761,-0.276,-0.2725,-0.2763,-0.2763,-0.2762,-0.2694,-0.2692,-0.2691,0,0,0,0,0,0,-0.2747,-0.2745,-0.2731,-0.274,-0.2739,-0.275,-0.2744,-0.2747,-0.2744,-0.2754,-0.2756,-0.2754,-0.2762,-0.2761,-0.2743,-0.2725,-0.2762,-0.2761,-0.2695,-0.2693,-0.2691,-0.2655,0,0,0,0,0,0,-0.2747,-0.2745,-0.2733,-0.2739,-0.2738,-0.2714,-0.2743,-0.2746,-0.2742,-0.2746,-0.275,-0.2752,-0.2763,-0.2744,-0.2742,-0.2725,-0.276,-0.2697,-0.2694,-0.2692,-0.2658,-0.2652,-0.2647,0,0,0,0,0,-0.2748,-0.2723,-0.2732,-0.273,-0.2724,-0.2713,-0.2712,-0.2725,-0.2741,-0.273,-0.2736,-0.2752,-0.2728,-0.2742,-0.274,-0.2722,-0.2698,-0.2695,-0.2692,-0.266,-0.2653,-0.2647,0,0,0,0,0,0,-0.2715,-0.2724,-0.2735,-0.2711,-0.2711,-0.2718,-0.2704,-0.2718,-0.2713,-0.2716,-0.2733,-0.2734,-0.2713,-0.2716,-0.2732,-0.2693,-0.2716,-0.2712,-0.2692,-0.2686,-0.268,-0.268,-0.276,0,0,0,0,0,-0.2704,-0.2695,-0.2703,-0.2682,-0.2681,-0.2693,-0.2688,-0.2698,-0.2699,-0.2699,-0.2704,-0.2704,-0.2697,-0.2692,-0.2685,-0.2659,-0.266,-0.2645,-0.264,-0.2636,-0.2632,-0.2618,-0.2612,-0.2681,-0.2681,-0.2681,0,0,-0.2683,-0.2687,-0.268,-0.2675,-0.2676,-0.2666,-0.2692,-0.268,-0.2672,-0.2697,-0.268,-0.2684,-0.2685,-0.2663,-0.2653,-0.2665,-0.2613,-0.2632,-0.2628,-0.2627,-0.2615,-0.2608,-0.2602,-0.2679,-0.268,-0.268,0,0,-0.264,-0.2642,-0.2624,-0.2624,-0.2626,-0.2634,-0.2629,-0.2635,-0.2638,-0.2621,-0.264,-0.2631,-0.2618,-0.2618,-0.2616,-0.2572,-0.2587,-0.257,-0.2542,-0.2528,-0.2523,-0.2518,-0.2502,-0.2496,-0.2567,-0.2567,-0.2567,0,-0.2613,-0.2598,-0.2613,-0.2599,-0.2596,-0.2619,-0.26,-0.26,-0.26,-0.2597,-0.261,-0.2594,-0.2596,-0.2574,-0.2563,-0.2561,-0.2557,-0.2569,-0.2522,-0.2518,-0.2513,-0.2498,-0.2492,-0.2565,-0.2565,-0.2565,-0.2565,0,-0.2565,-0.2554,-0.254,-0.2538,-0.2534,-0.2518,-0.253,-0.2524,-0.2535,-0.2541,-0.2524,-0.2528,-0.2523,-0.2518,-0.2529,-0.2497,-0.2504,-0.2519,-0.2542,-0.2504,-0.249,-0.2485,-0.2562,-0.2562,-0.2563,-0.2563,0,0,-0.25,-0.2507,-0.2502,-0.2501,-0.2504,-0.2496,-0.2481,-0.2476,-0.247,-0.2469,-0.2457,-0.2446,-0.246,-0.2458,-0.2468,-0.2456,-0.2421,-0.2473,-0.2473,-0.2463,-0.2386,-0.2374,-0.2367,-0.2431,-0.243,-0.2429,-0.2386,0,-0.2458,-0.2433,-0.2446,-0.2419,-0.2409,-0.243,-0.2417,-0.2418,-0.2423,-0.2416,-0.2423,-0.2414,-0.2433,-0.2432,-0.2421,-0.2427,-0.2406,-0.2431,-0.2419,-0.2419,-0.2418,-0.236,-0.2348,-0.2307,-0.2381,-0.238,-0.2379,0,-0.2405,-0.2401,-0.2373,-0.2378,-0.2374,-0.2362,-0.2359,-0.2351,-0.2352,-0.2358,-0.2355,-0.2369,-0.2355,-0.2377,-0.2358,-0.2375,-0.2371,-0.2373,-0.2372,-0.2371,-0.2396,-0.2357,-0.2294,-0.2288,-0.2371,-0.2371,-0.2372,0,-0.2359,-0.2348,-0.2329,-0.2328,-0.2334,-0.2325,-0.2327,-0.2329,-0.2325,-0.2322,-0.232,-0.2315,-0.2312,-0.2308,-0.232,-0.2335,-0.2299,-0.2323,-0.2302,-0.2302,-0.2293,-0.2293,-0.2228,-0.2291,-0.2291,-0.2292,-0.2292,0,-0.231,-0.2292,-0.2309,-0.2298,-0.2278,-0.2293,-0.2274,-0.2278,-0.228,-0.227,-0.2288,-0.2278,-0.2295,-0.2286,-0.2296,-0.2278,-0.2277,-0.228,-0.2283,-0.2278,-0.2278,-0.2276,-0.2279,-0.229,-0.229,-0.2291,-0.2291,0,-0.2256,-0.2267,-0.2248,-0.2255,-0.2256,-0.2242,-0.2247,-0.2237,-0.2244,-0.2231,-0.2229,-0.224,-0.2231,-0.2243,-0.2236,-0.2242,-0.2217,-0.2225,-0.2217,-0.2219,-0.2198,-0.2199,-0.2128,-0.212,-0.2189,-0.2188,-0.2188,0,-0.2224,-0.2211,-0.2216,-0.221,-0.2211,-0.2202,-0.2198,-0.2213,-0.2208,-0.2208,-0.2197,-0.219,-0.2185,-0.217,-0.2178,-0.2172,-0.2179,-0.2154,-0.2178,-0.2174,-0.2178,-0.2178,-0.2177,-0.2149,-0.2149,-0.2148,-0.2147,0,-0.2166,-0.2171,-0.2165,-0.216,-0.2155,-0.2151,-0.215,-0.2144,-0.2159,-0.2153,-0.2144,-0.214,-0.2132,-0.2125,-0.2121,-0.2123,-0.2137,-0.214,-0.2135,-0.213,-0.2126,-0.2127,-0.2203,-0.2141,-0.2142,-0.2142,-0.2143,-0.2143,-0.2121,-0.211,-0.2112,-0.2104,-0.2104,-0.2102,-0.2093,-0.2099,-0.2092,-0.2086,-0.2096,-0.2084,-0.2086,-0.2082,-0.2083,-0.2074,-0.2085,-0.2077,-0.2075,-0.2073,-0.207,-0.2127,-0.2073,-0.2074,-0.2074,-0.2074,-0.2074,0,-0.2064,-0.2066,-0.2058,-0.2055,-0.2049,-0.2063,-0.2062,-0.2055,-0.2045,-0.2045,-0.204,-0.203,-0.2023,-0.2029,-0.2024,-0.2015,-0.2022,-0.2013,-0.2014,-0.2014,-0.2061,-0.2066,-0.2008,-0.2008,-0.2008,-0.2008,-0.2008,-0.2008,-0.2033,-0.2015,-0.2021,-0.2003,-0.2006,-0.1995,-0.1993,-0.1991,-0.1991,-0.1978,-0.1973,-0.1977,-0.198,-0.1974,-0.1968,-0.197,-0.1967,-0.1956,-0.1961,-0.2004,-0.2011,-0.2017,-0.2021,-0.1955,-0.1955,-0.1914,-0.1914,-0.1914]},{"header":{"parameterUnit":"m.s-1","parameterCategory":1,"la1":30.2991,"la2":30.254,"lo1":-89.0895,"lo2":-89.0444,"dy":0.0017,"dx":0.0017,"nx":28,"ny":28,"refTime":"2025-05-22T03:00:00:Z","depth":0,"parameterNumber":3,"parameterNumberName":"V-component_of_WINDS"},"data":[0,0,0,0,0,0,0,0,0,0,0,0,0,0,0,0,0,0,0,0,0,0,0,0,0,0,0,0,0,0,0,0,0,0,0,0,0,0,0,0,0,0,0,0,0,0,0,0,0,0,0,0,0,0,0,0,0,0,1.5239,1.5239,0,1.5226,1.5225,1.5225,1.5215,1.5215,1.5215,1.5215,1.5201,1.52,1.52,0,0,0,0,0,0,0,0,0,0,0,0,0,1.5254,1.5254,1.5239,1.5239,1.5238,1.5226,1.5225,1.5225,1.5215,1.5215,1.5215,1.5215,1.5201,1.52,1.52,0,0,0,0,0,0,0,0,0,0,0,0,0,1.5245,1.5254,1.5239,1.5232,1.5231,1.5226,1.5225,1.5225,1.5215,1.5215,1.5215,1.5215,1.5201,1.52,1.52,1.52,0,0,1.5199,1.5199,0,0,0,0,0,0,0,0,1.5245,1.5244,1.5233,1.5232,1.5231,1.5222,1.5226,1.5217,1.5215,1.5221,1.5215,1.5215,1.5208,1.5207,1.5205,1.52,1.5199,1.5199,1.5198,1.5198,1.5198,0,0,0,0,0,0,0,1.5246,1.5245,1.5234,1.5233,1.5232,1.5229,1.5227,1.5224,1.5215,1.5221,1.522,1.5218,1.5207,1.5205,1.5204,1.5199,1.5199,1.5198,1.5198,1.5198,1.5193,1.5193,0,0,0,0,0,0,1.5248,1.5245,1.5234,1.5233,1.5238,1.5229,1.5227,1.5225,1.5215,1.5214,1.5219,1.5218,1.5206,1.5205,1.5204,1.5203,1.5198,1.5198,1.5198,1.5193,1.5193,1.5193,0,0,0,0,0,0,1.5248,1.5247,1.5234,1.5239,1.5237,1.5229,1.5226,1.5225,1.5223,1.5214,1.5212,1.5218,1.5206,1.5204,1.5201,1.5203,1.5198,1.5197,1.5193,1.5193,1.5193,1.5202,0,0,0,0,0,0,1.5249,1.5247,1.5247,1.5239,1.5237,1.5233,1.5226,1.5225,1.5222,1.5221,1.5213,1.5211,1.5205,1.5202,1.5201,1.5202,1.5197,1.5193,1.5193,1.5193,1.5202,1.5203,1.5204,0,0,0,0,0,1.5249,1.525,1.5247,1.5246,1.5237,1.5233,1.5231,1.5225,1.5222,1.5222,1.5217,1.5212,1.5203,1.5202,1.52,1.5201,1.5193,1.5193,1.5193,1.5202,1.5203,1.5204,0,0,0,0,0,0,1.5259,1.5249,1.5246,1.5244,1.5239,1.5231,1.5231,1.5226,1.5222,1.5221,1.5213,1.5211,1.5209,1.5205,1.5204,1.5201,1.5197,1.5197,1.5204,1.5205,1.5206,1.5206,1.5197,0,0,0,0,0,1.5261,1.5258,1.525,1.5249,1.5247,1.5239,1.5237,1.5232,1.5227,1.5225,1.5219,1.5213,1.5209,1.5207,1.5203,1.5201,1.5199,1.5201,1.5202,1.5203,1.5203,1.5201,1.5202,1.5194,1.5194,1.5194,0,0,1.5265,1.5259,1.5258,1.5251,1.5247,1.5244,1.5238,1.5235,1.5233,1.5224,1.5221,1.5217,1.521,1.5208,1.5206,1.5204,1.5205,1.5203,1.5204,1.5203,1.5202,1.5202,1.5203,1.5195,1.5195,1.5194,0,0,1.5271,1.5266,1.5265,1.5261,1.5254,1.5249,1.5249,1.5241,1.5238,1.5235,1.5228,1.5225,1.5218,1.5214,1.5211,1.5214,1.5209,1.5213,1.5218,1.5216,1.5217,1.5217,1.5218,1.5219,1.5213,1.5213,1.5213,0,1.5276,1.5272,1.5265,1.5263,1.526,1.5252,1.5251,1.5247,1.5239,1.5237,1.5235,1.5226,1.5221,1.5217,1.5218,1.5216,1.5215,1.5214,1.5217,1.5218,1.5218,1.5219,1.5219,1.5214,1.5214,1.5214,1.5214,0,1.5279,1.5276,1.5276,1.5269,1.5266,1.5264,1.5257,1.5254,1.525,1.5245,1.5241,1.5235,1.5229,1.5228,1.5224,1.5224,1.5222,1.5219,1.5215,1.5219,1.522,1.522,1.5214,1.5214,1.5214,1.5214,0,0,1.529,1.528,1.528,1.5276,1.5268,1.5266,1.5263,1.5258,1.5256,1.5251,1.5248,1.5243,1.5239,1.5235,1.5231,1.5229,1.5232,1.5226,1.5225,1.5227,1.5231,1.5234,1.5234,1.5229,1.5229,1.5229,1.5231,0,1.5295,1.529,1.5284,1.5281,1.5278,1.5271,1.5269,1.5264,1.5259,1.5255,1.525,1.5246,1.5242,1.524,1.5238,1.5232,1.5233,1.5232,1.5226,1.5226,1.5228,1.5234,1.5237,1.524,1.5232,1.5232,1.5232,0,1.5299,1.5294,1.5292,1.5284,1.5282,1.528,1.5275,1.5272,1.5265,1.5262,1.5258,1.5252,1.5249,1.5245,1.524,1.524,1.5237,1.5234,1.5234,1.5233,1.5229,1.5233,1.5241,1.5241,1.5232,1.5232,1.5232,0,1.5307,1.53,1.5298,1.5295,1.5286,1.5285,1.5281,1.5274,1.5271,1.5266,1.5264,1.5259,1.5255,1.5251,1.5244,1.5242,1.524,1.5236,1.5236,1.5237,1.5236,1.5236,1.5243,1.5235,1.5235,1.5235,1.5235,0,1.5312,1.5311,1.5301,1.5299,1.5297,1.529,1.5288,1.5283,1.5278,1.5275,1.5268,1.5265,1.5257,1.5253,1.5247,1.5244,1.5242,1.5239,1.5238,1.524,1.524,1.5238,1.5237,1.5235,1.5235,1.5235,1.5235,0,1.5321,1.5314,1.5311,1.5303,1.53,1.5299,1.5292,1.529,1.5285,1.5281,1.528,1.5271,1.5266,1.5259,1.5252,1.5248,1.5245,1.5243,1.5247,1.5247,1.5247,1.5247,1.5252,1.5253,1.5245,1.5245,1.5245,0,1.5324,1.5323,1.5315,1.5312,1.5309,1.5305,1.5302,1.5294,1.5291,1.5284,1.5283,1.5277,1.5273,1.5265,1.5258,1.5252,1.525,1.5252,1.5249,1.5251,1.5249,1.5249,1.5249,1.5252,1.5253,1.5253,1.5253,0,1.5331,1.5328,1.5324,1.5319,1.5315,1.5311,1.5306,1.5304,1.5296,1.5293,1.5287,1.5284,1.5276,1.5271,1.5264,1.526,1.5255,1.5254,1.5254,1.5255,1.5258,1.5256,1.5249,1.5254,1.5254,1.5254,1.5253,1.5253,1.5337,1.5336,1.5329,1.5325,1.532,1.5316,1.5313,1.5308,1.5304,1.5297,1.5293,1.5288,1.5282,1.5272,1.5268,1.5264,1.5262,1.5261,1.5261,1.5261,1.5262,1.5259,1.5262,1.5262,1.5262,1.5262,1.5262,0,1.5344,1.5339,1.5335,1.5329,1.5325,1.5321,1.5315,1.5312,1.5308,1.5302,1.5298,1.5292,1.5286,1.5279,1.5273,1.5271,1.5268,1.527,1.5269,1.5268,1.5264,1.5265,1.5272,1.5272,1.5272,1.5272,1.5272,1.5272,1.5346,1.5343,1.5339,1.5334,1.5329,1.5325,1.5322,1.5317,1.5313,1.5306,1.5302,1.5297,1.5291,1.5284,1.5279,1.5277,1.5275,1.5276,1.5274,1.527,1.5269,1.5268,1.5268,1.5276,1.5276,1.5278,1.5278,1.5278]}]]